• In Deutschland
  • Länderverzeichnis
  • Für 7 Tage
  • Wassertemperatur
  • Satellitenkarten
  • Wetterkarte
  • Widgets
  • user-avatar
    Anmelden

    Stündliche Wetter Villavicencio

    Heute, 23 Juli, Montag

    Zeit Temperatur Niederschläge Wind Luftdruck Luftfeuchtigkeit
    00:00 +23°C° 0,1 mm 1 m/S 718 mmHg 83%
    01:00 +23°C° 0,1 mm 1 m/S 718 mmHg 81%
    02:00 +23°C° 0 mm 1 m/S 718 mmHg 81%
    03:00 +23°C° 0 mm 1 m/S 718 mmHg 80%
    04:00 +22°C° 0 mm 1 m/S 718 mmHg 80%
    05:00 +23°C° 0 mm 1 m/S 718 mmHg 79%
    06:00 +24°C° 0 mm 1 m/S 719 mmHg 78%
    07:00 +22°C° 0 mm 0 m/S 719 mmHg 76%
    08:00 +26°C° 0 mm 1 m/S 719 mmHg 70%
    09:00 +28°C° 0 mm 1 m/S 719 mmHg 63%
    10:00 +30°C° 0 mm 2 m/S 720 mmHg 57%
    11:00 +31°C° 0 mm 2 m/S 719 mmHg 56%
    12:00 +32°C° 0 mm 2 m/S 719 mmHg 54%
    13:00 +32°C° 0 mm 2 m/S 718 mmHg 53%
    14:00 +32°C° 0 mm 2 m/S 717 mmHg 56%
    15:00 +31°C° 0 mm 2 m/S 717 mmHg 59%
    16:00 +31°C° 0 mm 2 m/S 716 mmHg 62%
    17:00 +29°C° 0,1 mm 1 m/S 717 mmHg 70%
    18:00 +27°C° 0,1 mm 1 m/S 717 mmHg 78%
    19:00 +23°C° 0,1 mm 0 m/S 717 mmHg 86%
    20:00 +23°C° 0,7 mm 0 m/S 718 mmHg 87%
    21:00 +23°C° 0,7 mm 0 m/S 719 mmHg 87%
    22:00 +24°C° 0,7 mm 1 m/S 720 mmHg 88%
    23:00 +24°C° 0,6 mm 1 m/S 720 mmHg 87%

    Morgen, 24 Juli, Dienstag

    Zeit Temperatur Niederschläge Wind Luftdruck Luftfeuchtigkeit
    00:00 +24°C° 0,6 mm 1 m/S 719 mmHg 87%
    01:00 +24°C° 0,6 mm 1 m/S 719 mmHg 87%
    02:00 +24°C° 0,8 mm 1 m/S 719 mmHg 87%
    03:00 +24°C° 0,8 mm 1 m/S 719 mmHg 88%
    04:00 +24°C° 0,8 mm 1 m/S 719 mmHg 89%
    05:00 +22°C° 0,4 mm 0 m/S 719 mmHg 88%
    06:00 +22°C° 0,4 mm 0 m/S 719 mmHg 88%
    07:00 +22°C° 0,4 mm 0 m/S 720 mmHg 87%
    08:00 +24°C° 0,3 mm 1 m/S 720 mmHg 85%
    09:00 +25°C° 0,3 mm 1 m/S 721 mmHg 83%
    10:00 +25°C° 0,3 mm 1 m/S 721 mmHg 81%
    11:00 +26°C° 0,4 mm 1 m/S 721 mmHg 81%
    12:00 +26°C° 0,4 mm 1 m/S 720 mmHg 81%
    13:00 +26°C° 0,4 mm 1 m/S 720 mmHg 82%
    14:00 +26°C° 0,2 mm 1 m/S 719 mmHg 81%
    15:00 +26°C° 0,2 mm 1 m/S 719 mmHg 80%
    16:00 +26°C° 0,2 mm 1 m/S 718 mmHg 80%
    17:00 +25°C° 0,7 mm 1 m/S 719 mmHg 84%
    18:00 +24°C° 0,7 mm 1 m/S 719 mmHg 88%
    19:00 +23°C° 0,7 mm 1 m/S 720 mmHg 92%
    20:00 +23°C° 0,4 mm 1 m/S 720 mmHg 91%
    21:00 +23°C° 0,4 mm 1 m/S 721 mmHg 90%
    22:00 +23°C° 0,4 mm 1 m/S 721 mmHg 89%
    23:00 +23°C° 0,1 mm 1 m/S 721 mmHg 88%

    übermorgen, 25 Juli, Mittwoch

    Zeit Temperatur Niederschläge Wind Luftdruck Luftfeuchtigkeit
    00:00 +23°C° 0,1 mm 1 m/S 720 mmHg 86%
    01:00 +23°C° 0,1 mm 1 m/S 720 mmHg 85%
    02:00 +23°C° 0,1 mm 1 m/S 720 mmHg 84%
    03:00 +23°C° 0,1 mm 1 m/S 719 mmHg 83%
    04:00 +23°C° 0,1 mm 1 m/S 719 mmHg 81%
    05:00 +23°C° 0,2 mm 1 m/S 719 mmHg 81%
    06:00 +24°C° 0,2 mm 1 m/S 720 mmHg 81%
    07:00 +22°C° 0,2 mm 0 m/S 720 mmHg 80%
    08:00 +25°C° 0,2 mm 1 m/S 720 mmHg 78%
    09:00 +26°C° 0,2 mm 1 m/S 721 mmHg 76%
    10:00 +27°C° 0,2 mm 1 m/S 721 mmHg 74%
    11:00 +27°C° 0,1 mm 1 m/S 720 mmHg 74%
    12:00 +27°C° 0,1 mm 1 m/S 720 mmHg 73%
    13:00 +27°C° 0,1 mm 1 m/S 719 mmHg 73%
    14:00 +28°C° 0,1 mm 1 m/S 719 mmHg 71%
    15:00 +28°C° 0,1 mm 1 m/S 718 mmHg 70%
    16:00 +29°C° 0,1 mm 1 m/S 717 mmHg 69%
    17:00 +28°C° 0,1 mm 1 m/S 718 mmHg 73%
    18:00 +26°C° 0,1 mm 1 m/S 718 mmHg 77%
    19:00 +25°C° 0,1 mm 1 m/S 719 mmHg 81%
    20:00 +24°C° 0,7 mm 1 m/S 719 mmHg 83%
    21:00 +24°C° 0,7 mm 1 m/S 720 mmHg 85%
    22:00 +24°C° 0,7 mm 1 m/S 720 mmHg 87%
    23:00 +23°C° 0,7 mm 1 m/S 720 mmHg 87%

    26 Juli, Donnerstag

    Zeit Temperatur Niederschläge Wind Luftdruck Luftfeuchtigkeit
    00:00 +23°C° 0,7 mm 1 m/S 720 mmHg 87%
    01:00 +23°C° 0,7 mm 1 m/S 720 mmHg 87%
    02:00 +23°C° 0,5 mm 1 m/S 719 mmHg 87%
    03:00 +21°C° 0,5 mm 0 m/S 719 mmHg 87%
    04:00 +21°C° 0,5 mm 0 m/S 719 mmHg 87%
    05:00 +21°C° 0,5 mm 0 m/S 719 mmHg 87%
    06:00 +21°C° 0,5 mm 0 m/S 720 mmHg 87%
    07:00 +21°C° 0,5 mm 0 m/S 720 mmHg 87%
    08:00 +22°C° 0,4 mm 0 m/S 721 mmHg 87%
    09:00 +24°C° 0,4 mm 1 m/S 721 mmHg 87%
    10:00 +24°C° 0,4 mm 1 m/S 721 mmHg 87%
    11:00 +26°C° 0,2 mm 1 m/S 721 mmHg 83%
    12:00 +27°C° 0,2 mm 1 m/S 720 mmHg 78%
    13:00 +28°C° 0,2 mm 1 m/S 719 mmHg 74%
    14:00 +28°C° 0,1 mm 1 m/S 719 mmHg 75%
    15:00 +27°C° 0,1 mm 1 m/S 718 mmHg 76%
    16:00 +27°C° 0,1 mm 1 m/S 717 mmHg 77%
    17:00 +26°C° 0,2 mm 1 m/S 718 mmHg 81%
    18:00 +25°C° 0,2 mm 1 m/S 718 mmHg 86%
    19:00 +22°C° 0,2 mm 0 m/S 719 mmHg 90%
    20:00 +22°C° 0,2 mm 0 m/S 719 mmHg 90%
    21:00 +22°C° 0,2 mm 0 m/S 720 mmHg 90%
    22:00 +22°C° 0,2 mm 0 m/S 720 mmHg 90%
    23:00 +22°C° 0,5 mm 0 m/S 720 mmHg 90%

    27 Juli, Freitag

    Zeit Temperatur Niederschläge Wind Luftdruck Luftfeuchtigkeit
    00:00 +23°C° 0,5 mm 1 m/S 720 mmHg 89%
    01:00 +23°C° 0,5 mm 1 m/S 719 mmHg 89%
    02:00 +23°C° 0,2 mm 1 m/S 719 mmHg 89%
    03:00 +23°C° 0,2 mm 1 m/S 719 mmHg 89%
    04:00 +23°C° 0,2 mm 1 m/S 719 mmHg 88%
    05:00 +23°C° 0,1 mm 1 m/S 719 mmHg 87%
    06:00 +21°C° 0,1 mm 0 m/S 720 mmHg 86%
    07:00 +22°C° 0,1 mm 0 m/S 720 mmHg 85%
    08:00 +25°C° 0,1 mm 1 m/S 720 mmHg 82%
    09:00 +25°C° 0,1 mm 1 m/S 720 mmHg 80%
    10:00 +26°C° 0,1 mm 1 m/S 721 mmHg 77%
    11:00 +27°C° 0,1 mm 1 m/S 720 mmHg 75%
    12:00 +28°C° 0,1 mm 2 m/S 720 mmHg 72%
    13:00 +28°C° 0,1 mm 2 m/S 719 mmHg 70%
    14:00 +28°C° 0,1 mm 2 m/S 718 mmHg 72%
    15:00 +28°C° 0,1 mm 1 m/S 718 mmHg 73%
    16:00 +28°C° 0,1 mm 1 m/S 718 mmHg 75%
    17:00 +26°C° 0,5 mm 1 m/S 718 mmHg 80%
    18:00 +25°C° 0,5 mm 1 m/S 718 mmHg 85%
    19:00 +22°C° 0,5 mm 0 m/S 719 mmHg 91%
    20:00 +24°C° 0,7 mm 1 m/S 719 mmHg 91%
    21:00 +24°C° 0,7 mm 1 m/S 720 mmHg 91%
    22:00 +23°C° 0,7 mm 1 m/S 720 mmHg 92%
    23:00 +23°C° 0,1 mm 1 m/S 720 mmHg 90%

    28 Juli, Samstag

    Zeit Temperatur Niederschläge Wind Luftdruck Luftfeuchtigkeit
    00:00 +23°C° 0,1 mm 1 m/S 719 mmHg 88%
    01:00 +23°C° 0,1 mm 1 m/S 719 mmHg 86%
    02:00 +23°C° 0,1 mm 1 m/S 719 mmHg 85%
    03:00 +23°C° 0,1 mm 1 m/S 719 mmHg 84%
    04:00 +23°C° 0,1 mm 1 m/S 718 mmHg 83%
    05:00 +23°C° 0,1 mm 1 m/S 719 mmHg 83%
    06:00 +21°C° 0,1 mm 0 m/S 719 mmHg 83%
    07:00 +22°C° 0,1 mm 0 m/S 720 mmHg 83%
    08:00 +25°C° 0,1 mm 1 m/S 720 mmHg 80%
    09:00 +26°C° 0,1 mm 1 m/S 720 mmHg 77%
    10:00 +27°C° 0,1 mm 1 m/S 720 mmHg 74%
    11:00 +27°C° 0,1 mm 1 m/S 720 mmHg 72%
    12:00 +28°C° 0,1 mm 2 m/S 719 mmHg 71%
    13:00 +29°C° 0,1 mm 2 m/S 718 mmHg 69%
    14:00 +28°C° 0,1 mm 2 m/S 718 mmHg 70%
    15:00 +28°C° 0,1 mm 1 m/S 717 mmHg 72%
    16:00 +28°C° 0,1 mm 1 m/S 717 mmHg 73%
    17:00 +27°C° 0,1 mm 1 m/S 717 mmHg 77%
    18:00 +26°C° 0,1 mm 1 m/S 718 mmHg 82%
    19:00 +23°C° 0,1 mm 0 m/S 718 mmHg 87%
    20:00 +24°C° 0 mm 1 m/S 718 mmHg 85%
    21:00 +24°C° 0 mm 1 m/S 719 mmHg 84%
    22:00 +24°C° 0 mm 1 m/S 719 mmHg 83%
    23:00 +24°C° 0 mm 1 m/S 719 mmHg 81%
    Mehr zeigen